IRIDIUM 74 [S]

Last updated on June 14, 2017, 12:17 a.m. UTC

1 25345U 98032D   17162.50137684  .46065783  39736-5  20475-2 0  9994
2 25345  86.5550 226.3282 0321839 347.0209 102.6037 15.75316926  1955

Satellite is not in orbit.